[[{"header":{"parameterUnit":"m.s-1","parameterCategory":1,"la1":30.2991,"la2":30.254,"lo1":-89.0895,"lo2":-89.0444,"dy":0.0017,"dx":0.0017,"nx":28,"ny":28,"refTime":"2025-04-15T21:00:00:Z","depth":0,"parameterNumber":2,"parameterNumberName":"U-component_of_WINDS"},"data":[0,0,0,0,0,0,0,0,0,0,0,0,0,0,0,0,0,0,0,0,0,0,0,0,0,0,0,0,0,0,0,0,0,0,0,0,0,0,0,0,0,0,0,0,0,0,0,0,0,0,0,0,0,0,0,0,0,0,1.0676,1.0676,0,1.0714,1.0714,1.0715,1.073,1.073,1.073,1.073,1.0768,1.0769,1.077,0,0,0,0,0,0,0,0,0,0,0,0,0,1.0618,1.0619,1.0676,1.0676,1.0677,1.0714,1.0714,1.0715,1.073,1.073,1.073,1.073,1.0768,1.0769,1.077,0,0,0,0,0,0,0,0,0,0,0,0,0,1.0648,1.0619,1.0676,1.0689,1.0691,1.0714,1.0714,1.0715,1.073,1.073,1.073,1.073,1.0767,1.0769,1.0771,1.0783,0,0,1.0776,1.0776,0,0,0,0,0,0,0,0,1.0646,1.065,1.0687,1.0688,1.069,1.0717,1.0708,1.0738,1.073,1.0715,1.073,1.073,1.0751,1.0754,1.0762,1.0785,1.0786,1.0776,1.0777,1.0777,1.0778,0,0,0,0,0,0,0,1.0644,1.0649,1.0691,1.0687,1.0689,1.0694,1.0698,1.0714,1.0733,1.0717,1.0718,1.0722,1.0752,1.076,1.0763,1.0787,1.0776,1.0777,1.0778,1.0779,1.0825,1.0825,0,0,0,0,0,0,1.064,1.0647,1.069,1.0692,1.0668,1.0695,1.0699,1.0709,1.0733,1.0737,1.0722,1.0723,1.0757,1.0761,1.0764,1.0781,1.0777,1.0779,1.078,1.0824,1.0825,1.0825,0,0,0,0,0,0,1.0639,1.0644,1.0688,1.067,1.0676,1.0696,1.0706,1.0709,1.0717,1.0738,1.0741,1.0726,1.0757,1.0762,1.0779,1.0783,1.078,1.0781,1.0824,1.0825,1.0825,1.0815,0,0,0,0,0,0,1.0637,1.0643,1.0647,1.067,1.0677,1.0702,1.0706,1.071,1.072,1.0721,1.0742,1.0746,1.0758,1.0776,1.078,1.0785,1.0782,1.0824,1.0824,1.0825,1.0815,1.0815,1.0815,0,0,0,0,0,1.0635,1.0643,1.0648,1.0653,1.0683,1.0702,1.0706,1.0719,1.072,1.0725,1.0739,1.0745,1.0782,1.0778,1.0783,1.0788,1.0824,1.0824,1.0825,1.0815,1.0815,1.0815,0,0,0,0,0,0,1.0619,1.0646,1.0651,1.0667,1.0682,1.0704,1.0711,1.0718,1.0733,1.0734,1.075,1.0755,1.0771,1.0781,1.0776,1.0802,1.0803,1.0805,1.0795,1.0795,1.0795,1.0791,1.0784,0,0,0,0,0,1.0618,1.0631,1.0653,1.0665,1.0672,1.069,1.0699,1.0708,1.0725,1.0731,1.0746,1.0762,1.0777,1.0787,1.0802,1.0817,1.0823,1.0824,1.0823,1.0823,1.0824,1.0835,1.0836,1.0827,1.0827,1.0827,0,0,1.0614,1.063,1.0637,1.0662,1.0675,1.0689,1.0695,1.0709,1.072,1.0733,1.075,1.0762,1.0781,1.0798,1.0806,1.0807,1.0828,1.0824,1.0824,1.0825,1.0836,1.0836,1.0837,1.0827,1.0827,1.0827,0,0,1.0615,1.0628,1.064,1.0653,1.0673,1.0686,1.0689,1.0711,1.0719,1.0737,1.0748,1.0761,1.0787,1.08,1.0811,1.082,1.0827,1.0825,1.0824,1.0834,1.0835,1.0836,1.084,1.0841,1.0826,1.0826,1.0825,0,1.0608,1.0629,1.0645,1.0659,1.067,1.0684,1.0696,1.0708,1.0732,1.074,1.0741,1.0775,1.0789,1.081,1.0812,1.082,1.0824,1.0821,1.0834,1.0834,1.0835,1.0839,1.0841,1.0825,1.0825,1.0825,1.0825,0,1.062,1.0635,1.0642,1.0665,1.0678,1.069,1.0709,1.0719,1.0729,1.0741,1.076,1.0778,1.0797,1.0803,1.0812,1.0826,1.0826,1.083,1.0832,1.0836,1.084,1.0841,1.0825,1.0825,1.0825,1.0825,0,0,1.0609,1.0644,1.0646,1.0658,1.0682,1.0694,1.0709,1.0729,1.0738,1.0755,1.0768,1.0791,1.0796,1.0807,1.0818,1.0827,1.0835,1.0831,1.0831,1.0831,1.0853,1.085,1.0851,1.084,1.0841,1.0841,1.0852,0,1.0613,1.064,1.0656,1.0676,1.0691,1.0706,1.0719,1.0736,1.0749,1.0764,1.0778,1.0795,1.0799,1.0807,1.0817,1.0832,1.084,1.0831,1.0853,1.0854,1.0847,1.0853,1.0849,1.0858,1.0854,1.0854,1.0854,0,1.0621,1.0639,1.0661,1.0686,1.0693,1.0704,1.0725,1.0739,1.0759,1.0768,1.0783,1.0794,1.0811,1.0812,1.0837,1.0831,1.0841,1.085,1.0851,1.0853,1.0853,1.0855,1.0861,1.0863,1.0857,1.0856,1.0856,0,1.0611,1.0641,1.0658,1.0668,1.0698,1.0705,1.0718,1.0739,1.075,1.0769,1.0777,1.0797,1.0808,1.0824,1.0841,1.084,1.0864,1.0866,1.0873,1.0872,1.0876,1.0875,1.0883,1.0883,1.0883,1.0883,1.0883,0,1.0614,1.0627,1.0655,1.0665,1.0681,1.07,1.0715,1.0729,1.0748,1.0762,1.0777,1.079,1.0812,1.0828,1.0842,1.0861,1.0865,1.0873,1.0877,1.0872,1.0871,1.0878,1.0878,1.0883,1.0883,1.0883,1.0883,0,1.0605,1.0624,1.0644,1.0672,1.0679,1.0689,1.0713,1.0725,1.074,1.0758,1.0763,1.0787,1.0807,1.0826,1.0852,1.0862,1.0881,1.0885,1.0874,1.0876,1.0881,1.088,1.0893,1.0897,1.0894,1.0894,1.0894,0,1.0605,1.0615,1.0645,1.0656,1.0668,1.0685,1.0698,1.0718,1.0731,1.0757,1.0766,1.0787,1.0805,1.0837,1.0857,1.0878,1.0883,1.0886,1.0886,1.0881,1.0883,1.0882,1.0884,1.0885,1.0885,1.0885,1.0885,0,1.0603,1.0613,1.063,1.0652,1.0667,1.0685,1.0704,1.0712,1.0736,1.075,1.0771,1.0785,1.0814,1.0835,1.0859,1.0873,1.0883,1.0886,1.0888,1.0883,1.0876,1.088,1.0873,1.0885,1.0885,1.0885,1.0885,1.0885,1.0598,1.0609,1.0632,1.0652,1.0668,1.0686,1.0699,1.0716,1.0734,1.0759,1.0771,1.0792,1.0815,1.0849,1.0863,1.0881,1.0883,1.0886,1.0887,1.0888,1.0887,1.0874,1.0885,1.0885,1.0885,1.0885,1.0885,0,1.0597,1.0613,1.0632,1.0658,1.0674,1.0684,1.0706,1.0718,1.0738,1.0758,1.0776,1.0802,1.0824,1.0846,1.087,1.088,1.0885,1.0885,1.0884,1.0888,1.0883,1.0879,1.0881,1.0881,1.0881,1.0881,1.0881,1.0881,1.0598,1.0617,1.063,1.0659,1.0675,1.0697,1.0708,1.0725,1.0742,1.077,1.0789,1.0804,1.0826,1.0851,1.0872,1.0878,1.0886,1.0885,1.0892,1.0888,1.0888,1.0888,1.0884,1.0886,1.0886,1.0895,1.0895,1.0895]},{"header":{"parameterUnit":"m.s-1","parameterCategory":1,"la1":30.2991,"la2":30.254,"lo1":-89.0895,"lo2":-89.0444,"dy":0.0017,"dx":0.0017,"nx":28,"ny":28,"refTime":"2025-04-15T21:00:00:Z","depth":0,"parameterNumber":3,"parameterNumberName":"V-component_of_WINDS"},"data":[0,0,0,0,0,0,0,0,0,0,0,0,0,0,0,0,0,0,0,0,0,0,0,0,0,0,0,0,0,0,0,0,0,0,0,0,0,0,0,0,0,0,0,0,0,0,0,0,0,0,0,0,0,0,0,0,0,0,-3.502,-3.5019,0,-3.5008,-3.5007,-3.5007,-3.4976,-3.4975,-3.4974,-3.4974,-3.4959,-3.4959,-3.4959,0,0,0,0,0,0,0,0,0,0,0,0,0,-3.5014,-3.5014,-3.502,-3.5019,-3.5019,-3.5008,-3.5007,-3.5007,-3.4976,-3.4975,-3.4974,-3.4973,-3.4959,-3.4959,-3.496,0,0,0,0,0,0,0,0,0,0,0,0,0,-3.5011,-3.5014,-3.502,-3.5002,-3.5001,-3.5008,-3.5007,-3.5007,-3.4976,-3.4975,-3.4974,-3.4973,-3.4959,-3.4959,-3.496,-3.4982,0,0,-3.4961,-3.4961,0,0,0,0,0,0,0,0,-3.5011,-3.5011,-3.5005,-3.5003,-3.5002,-3.4992,-3.5,-3.4999,-3.4976,-3.4985,-3.4974,-3.4973,-3.4971,-3.497,-3.497,-3.4981,-3.498,-3.4961,-3.4961,-3.4961,-3.4961,0,0,0,0,0,0,0,-3.5011,-3.5011,-3.5015,-3.5005,-3.5003,-3.4995,-3.4993,-3.5,-3.4984,-3.4984,-3.4982,-3.4981,-3.497,-3.497,-3.4969,-3.498,-3.4961,-3.4961,-3.4961,-3.4961,-3.501,-3.5011,0,0,0,0,0,0,-3.5014,-3.5012,-3.5015,-3.5014,-3.5004,-3.4996,-3.4994,-3.4996,-3.4983,-3.4981,-3.4982,-3.498,-3.497,-3.4969,-3.4969,-3.4994,-3.4961,-3.4961,-3.4962,-3.5009,-3.5011,-3.5012,0,0,0,0,0,0,-3.5014,-3.5015,-3.5016,-3.5012,-3.5012,-3.4997,-3.5,-3.4996,-3.4996,-3.4982,-3.4979,-3.4985,-3.4969,-3.4968,-3.4979,-3.4993,-3.4961,-3.4962,-3.5008,-3.501,-3.5011,-3.5045,0,0,0,0,0,0,-3.5014,-3.5015,-3.5023,-3.5013,-3.5012,-3.5027,-3.5,-3.4997,-3.4997,-3.4994,-3.4984,-3.4981,-3.4968,-3.4979,-3.498,-3.4993,-3.4962,-3.5007,-3.5009,-3.5011,-3.5043,-3.5048,-3.5052,0,0,0,0,0,-3.5014,-3.5033,-3.5024,-3.5024,-3.5022,-3.5027,-3.5027,-3.5012,-3.4999,-3.5007,-3.4998,-3.4981,-3.4992,-3.498,-3.4981,-3.4995,-3.5006,-3.5008,-3.501,-3.5041,-3.5047,-3.5052,0,0,0,0,0,0,-3.5043,-3.5031,-3.5021,-3.5037,-3.5034,-3.5022,-3.5032,-3.5019,-3.5019,-3.5016,-3.4997,-3.4995,-3.5008,-3.5003,-3.499,-3.5016,-3.4996,-3.4999,-3.5019,-3.5025,-3.503,-3.503,-3.4962,0,0,0,0,0,-3.5052,-3.5058,-3.5046,-3.5061,-3.506,-3.5047,-3.5048,-3.5037,-3.5033,-3.5031,-3.5023,-3.5019,-3.5021,-3.5023,-3.5024,-3.5043,-3.504,-3.5053,-3.5057,-3.5061,-3.5063,-3.5073,-3.5079,-3.502,-3.502,-3.502,0,0,-3.5069,-3.5063,-3.5068,-3.5067,-3.5063,-3.507,-3.5046,-3.5053,-3.5057,-3.5032,-3.5042,-3.5036,-3.503,-3.5045,-3.5051,-3.5041,-3.508,-3.5064,-3.5068,-3.5068,-3.5076,-3.5082,-3.5087,-3.5021,-3.5021,-3.5021,0,0,-3.5104,-3.51,-3.5112,-3.511,-3.5105,-3.5096,-3.5099,-3.509,-3.5086,-3.5096,-3.5078,-3.5083,-3.5087,-3.5084,-3.5083,-3.5119,-3.5104,-3.512,-3.5144,-3.5154,-3.5159,-3.5163,-3.5176,-3.5181,-3.5123,-3.5123,-3.5123,0,-3.5125,-3.5134,-3.512,-3.5129,-3.5129,-3.5109,-3.5122,-3.512,-3.5115,-3.5116,-3.5105,-3.5111,-3.5106,-3.512,-3.5129,-3.5129,-3.5132,-3.512,-3.516,-3.5163,-3.5167,-3.5179,-3.5184,-3.5125,-3.5124,-3.5124,-3.5124,0,-3.5161,-3.5168,-3.5178,-3.5176,-3.5178,-3.5189,-3.5176,-3.518,-3.517,-3.5162,-3.5173,-3.5167,-3.5167,-3.517,-3.5159,-3.5183,-3.5177,-3.5163,-3.5142,-3.5175,-3.5186,-3.519,-3.5127,-3.5127,-3.5126,-3.5126,0,0,-3.5211,-3.5203,-3.5207,-3.5206,-3.5201,-3.5206,-3.5216,-3.5218,-3.5221,-3.522,-3.5227,-3.5233,-3.5221,-3.522,-3.5209,-3.5218,-3.5247,-3.5203,-3.5203,-3.5211,-3.5274,-3.5283,-3.5289,-3.5238,-3.5239,-3.524,-3.5274,0,-3.5243,-3.526,-3.5249,-3.5268,-3.5275,-3.5257,-3.5266,-3.5263,-3.5257,-3.5262,-3.5254,-3.5259,-3.5242,-3.5242,-3.525,-3.5242,-3.5259,-3.524,-3.5245,-3.5245,-3.5246,-3.5295,-3.5305,-3.5337,-3.5278,-3.5279,-3.5279,0,-3.5282,-3.5284,-3.5304,-3.5299,-3.5301,-3.531,-3.5311,-3.5315,-3.5313,-3.5308,-3.5308,-3.5296,-3.5305,-3.5286,-3.53,-3.5286,-3.5288,-3.5285,-3.5286,-3.5285,-3.5263,-3.5294,-3.5347,-3.5352,-3.5286,-3.5286,-3.5285,0,-3.5316,-3.5324,-3.5337,-3.5337,-3.5332,-3.5338,-3.5336,-3.5333,-3.5335,-3.5336,-3.5337,-3.5339,-3.534,-3.5342,-3.533,-3.5318,-3.5345,-3.5325,-3.534,-3.5341,-3.5346,-3.5345,-3.5399,-3.5349,-3.5349,-3.5348,-3.5348,0,-3.5352,-3.5365,-3.5352,-3.536,-3.5375,-3.5362,-3.5377,-3.5373,-3.537,-3.5377,-3.5362,-3.5369,-3.5354,-3.5359,-3.535,-3.5362,-3.5363,-3.5359,-3.5356,-3.5359,-3.536,-3.5359,-3.5356,-3.535,-3.5349,-3.5349,-3.5349,0,-3.5391,-3.5384,-3.5397,-3.5392,-3.5391,-3.5402,-3.5397,-3.5404,-3.5398,-3.5407,-3.5409,-3.5399,-3.5404,-3.5394,-3.5397,-3.5391,-3.5409,-3.5403,-3.541,-3.5408,-3.5424,-3.5422,-3.5478,-3.5485,-3.5431,-3.5432,-3.5432,0,-3.5414,-3.5424,-3.5421,-3.5425,-3.5425,-3.5431,-3.5434,-3.5423,-3.5426,-3.5426,-3.5433,-3.5438,-3.5441,-3.545,-3.5443,-3.5446,-3.544,-3.5459,-3.544,-3.5444,-3.5439,-3.5439,-3.544,-3.5463,-3.5463,-3.5464,-3.5464,0,-3.5456,-3.5452,-3.5457,-3.5462,-3.5466,-3.5469,-3.547,-3.5474,-3.5462,-3.5467,-3.5474,-3.5476,-3.5481,-3.5486,-3.5488,-3.5485,-3.5473,-3.5471,-3.5475,-3.5478,-3.5481,-3.5479,-3.542,-3.5469,-3.5469,-3.5468,-3.5468,-3.5468,-3.5487,-3.5496,-3.5495,-3.5502,-3.5502,-3.5505,-3.5512,-3.5508,-3.5513,-3.5517,-3.551,-3.5518,-3.5517,-3.5519,-3.5518,-3.5524,-3.5515,-3.552,-3.5521,-3.5523,-3.5525,-3.5482,-3.5524,-3.5524,-3.5524,-3.5524,-3.5524,0,-3.5527,-3.5527,-3.5534,-3.5537,-3.5543,-3.5533,-3.5534,-3.5539,-3.5547,-3.5548,-3.5552,-3.556,-3.5565,-3.5559,-3.5563,-3.5569,-3.5564,-3.5571,-3.5569,-3.5569,-3.5533,-3.5529,-3.5575,-3.5575,-3.5575,-3.5575,-3.5575,-3.5575,-3.5549,-3.5563,-3.556,-3.5574,-3.5573,-3.5582,-3.5584,-3.5586,-3.5587,-3.5597,-3.5602,-3.5599,-3.5597,-3.5601,-3.5606,-3.5604,-3.5606,-3.5614,-3.5611,-3.5577,-3.5571,-3.5567,-3.5563,-3.5615,-3.5615,-3.5646,-3.5646,-3.5647]}]]